This is the latest recevied weather packets stored in our database for station/object WA6TJQ. If no packets are shown the sender has not sent any weather packets the latest 10 day(s).
| Time | Temp. | Humidity | Pressure | Rain* | Wind** | Luminosity | Snow |
|---|---|---|---|---|---|---|---|
| 1777414290 | 13.89° C | 47% | 1011.6 hPa | 0 mm | - | - | - |
| 1777413990 | 13.89° C | 48% | 1011.4 hPa | 0 mm | - | - | - |
| 1777413690 | 13.89° C | 44% | 1011.4 hPa | 0 mm | - | - | - |
| 1777413390 | 13.89° C | 47% | 1011.7 hPa | 0 mm | - | - | - |
| 1777413090 | 13.89° C | 44% | 1011.6 hPa | 0 mm | - | - | - |
| 1777412790 | 14.44° C | 47% | 1011.7 hPa | 0 mm | - | - | - |
| 1777412490 | 13.89° C | 48% | 1011.6 hPa | 0 mm | - | - | - |
| 1777412190 | 13.89° C | 46% | 1011.6 hPa | 0 mm | - | - | - |
| 1777411890 | 13.89° C | 47% | 1011.7 hPa | 0 mm | - | - | - |
| 1777411590 | 13.89° C | 46% | 1011.8 hPa | 0 mm | - | - | - |
| 1777411290 | 13.89° C | 44% | 1011.9 hPa | 0 mm | - | - | - |
| 1777410990 | 13.89° C | 47% | 1011.7 hPa | 0 mm | - | - | - |
| 1777410690 | 13.89° C | 47% | 1011.7 hPa | 0 mm | - | - | - |
| 1777410391 | 13.89° C | 48% | 1011.7 hPa | 0 mm | - | - | - |
| 1777410090 | 13.89° C | 48% | 1011.7 hPa | 0 mm | - | - | - |
| 1777409790 | 13.89° C | 47% | 1011.7 hPa | 0 mm | - | - | - |
| 1777409490 | 13.89° C | 50% | 1011.9 hPa | 0 mm | - | - | - |
| 1777409190 | 13.89° C | 52% | 1011.8 hPa | 0 mm | - | - | - |
| 1777408890 | 13.89° C | 49% | 1011.8 hPa | 0 mm | - | - | - |
| 1777408590 | 13.33° C | 49% | 1011.9 hPa | 0 mm | - | - | - |
| 1777408291 | 13.33° C | 50% | 1011.9 hPa | 0 mm | - | - | - |
| 1777407990 | 13.33° C | 48% | 1012 hPa | 0 mm | - | - | - |
| 1777407689 | 13.89° C | 50% | 1012 hPa | 0 mm | - | - | - |
| 1777407390 | 13.33° C | 51% | 1012 hPa | 0 mm | - | - | - |
| 1777407089 | 13.33° C | 47% | 1012 hPa | 0 mm | - | - | - |
* Rain latest hour (hover to see other rain measurements)
** Current wind speed in m/s (hover to see current wind gust speed)